When you browse on this site, cookies collect data to enhance your experience and personalize the content and advertising you see.
Visit our Privacy Policy to learn more. By continuing to use the site, you agree to this use of cookies and data.
  • In Spain
  • List of Countries
  • For 7 days
  • Water Temperature
  • Satellite Maps
  • Weather Map
  • Weather Widgets
  • user-avatar
    Login

    Hourly Weather Bolshoe Chervonnoe

    Today, 25 May, Saturday

    Time Temperature Precipitation Wind Pressure Humidity
    00:00 +14°C° 0 mm 4 mps 737 mmHg 97%
    01:00 +14°C° 0 mm 3 mps 737 mmHg 97%
    02:00 +13°C° 0 mm 3 mps 737 mmHg 98%
    03:00 +14°C° 0 mm 3 mps 737 mmHg 97%
    04:00 +14°C° 0 mm 3 mps 737 mmHg 97%
    05:00 +14°C° 0 mm 3 mps 736 mmHg 96%
    06:00 +14°C° 0 mm 3 mps 736 mmHg 96%
    07:00 +16°C° 0 mm 3 mps 736 mmHg 95%
    08:00 +16°C° 0 mm 3 mps 736 mmHg 94%
    09:00 +17°C° 0.1 mm 3 mps 736 mmHg 92%
    10:00 +17°C° 0.1 mm 3 mps 736 mmHg 89%
    11:00 +18°C° 0.1 mm 3 mps 736 mmHg 87%
    12:00 +19°C° 0.6 mm 3 mps 736 mmHg 85%
    13:00 +19°C° 0.6 mm 3 mps 735 mmHg 82%
    14:00 +20°C° 0.6 mm 3 mps 735 mmHg 80%
    15:00 +20°C° 0.2 mm 2 mps 735 mmHg 78%
    16:00 +21°C° 0.2 mm 2 mps 735 mmHg 76%
    17:00 +21°C° 0.2 mm 2 mps 734 mmHg 74%
    18:00 +19°C° 1.2 mm 2 mps 734 mmHg 79%
    19:00 +18°C° 1.2 mm 3 mps 734 mmHg 85%
    20:00 +16°C° 1.2 mm 3 mps 734 mmHg 90%
    21:00 +14°C° 0 mm 3 mps 734 mmHg 91%
    22:00 +14°C° 0 mm 3 mps 734 mmHg 92%
    23:00 +13°C° 0 mm 3 mps 734 mmHg 93%

    Tomorrow, 26 May, Sunday

    Time Temperature Precipitation Wind Pressure Humidity
    00:00 +12°C° 0 mm 3 mps 734 mmHg 94%
    01:00 +12°C° 0 mm 2 mps 735 mmHg 94%
    02:00 +12°C° 0 mm 2 mps 735 mmHg 95%
    03:00 +11°C° 0 mm 3 mps 735 mmHg 94%
    04:00 +11°C° 0 mm 3 mps 735 mmHg 94%
    05:00 +11°C° 0 mm 3 mps 735 mmHg 94%
    06:00 +12°C° 0 mm 3 mps 736 mmHg 89%
    07:00 +13°C° 0 mm 4 mps 736 mmHg 84%
    08:00 +14°C° 0 mm 4 mps 736 mmHg 79%
    09:00 +15°C° 0 mm 4 mps 736 mmHg 74%
    10:00 +17°C° 0 mm 4 mps 736 mmHg 70%
    11:00 +18°C° 0 mm 4 mps 736 mmHg 65%
    12:00 +18°C° 0 mm 4 mps 736 mmHg 64%
    13:00 +17°C° 0 mm 5 mps 736 mmHg 62%
    14:00 +19°C° 0 mm 5 mps 736 mmHg 61%
    15:00 +19°C° 0 mm 5 mps 736 mmHg 63%
    16:00 +17°C° 0 mm 5 mps 735 mmHg 65%
    17:00 +17°C° 0 mm 5 mps 735 mmHg 66%
    18:00 +17°C° 0 mm 4 mps 736 mmHg 71%
    19:00 +14°C° 0 mm 4 mps 736 mmHg 75%
    20:00 +13°C° 0 mm 3 mps 736 mmHg 79%
    21:00 +12°C° 0 mm 3 mps 736 mmHg 82%
    22:00 +11°C° 0 mm 3 mps 736 mmHg 85%
    23:00 +11°C° 0 mm 3 mps 736 mmHg 88%

    Day after tomorrow, 27 May, Monday

    Time Temperature Precipitation Wind Pressure Humidity
    00:00 +11°C° 0 mm 3 mps 737 mmHg 89%
    01:00 +10°C° 0 mm 3 mps 737 mmHg 90%
    02:00 +10°C° 0 mm 3 mps 737 mmHg 91%
    03:00 +10°C° 0 mm 3 mps 737 mmHg 91%
    04:00 +10°C° 0 mm 3 mps 737 mmHg 91%
    05:00 +10°C° 0 mm 3 mps 737 mmHg 91%
    06:00 +12°C° 0 mm 4 mps 738 mmHg 86%
    07:00 +13°C° 0 mm 5 mps 738 mmHg 80%
    08:00 +15°C° 0 mm 5 mps 738 mmHg 75%
    09:00 +15°C° 0 mm 5 mps 738 mmHg 75%
    10:00 +15°C° 0 mm 6 mps 738 mmHg 74%
    11:00 +16°C° 0 mm 6 mps 738 mmHg 73%
    12:00 +17°C° 0.1 mm 6 mps 739 mmHg 71%
    13:00 +19°C° 0.1 mm 6 mps 739 mmHg 69%
    14:00 +20°C° 0.1 mm 6 mps 739 mmHg 68%
    15:00 +20°C° 0.3 mm 6 mps 739 mmHg 71%
    16:00 +20°C° 0.3 mm 5 mps 739 mmHg 74%
    17:00 +20°C° 0.3 mm 4 mps 739 mmHg 77%
    18:00 +19°C° 0.4 mm 4 mps 739 mmHg 80%
    19:00 +18°C° 0.4 mm 3 mps 739 mmHg 84%
    20:00 +17°C° 0.4 mm 3 mps 739 mmHg 87%
    21:00 +16°C° 0 mm 3 mps 739 mmHg 89%
    22:00 +14°C° 0 mm 3 mps 739 mmHg 91%
    23:00 +14°C° 0 mm 3 mps 739 mmHg 93%

    28 May, Tuesday

    Time Temperature Precipitation Wind Pressure Humidity
    00:00 +14°C° 0 mm 3 mps 739 mmHg 93%
    01:00 +13°C° 0 mm 3 mps 739 mmHg 94%
    02:00 +13°C° 0 mm 3 mps 739 mmHg 94%
    03:00 +14°C° 0 mm 3 mps 739 mmHg 94%
    04:00 +14°C° 0 mm 3 mps 739 mmHg 95%
    05:00 +14°C° 0 mm 3 mps 739 mmHg 95%
    06:00 +17°C° 0.1 mm 4 mps 739 mmHg 91%
    07:00 +19°C° 0.1 mm 4 mps 740 mmHg 87%
    08:00 +20°C° 0.1 mm 4 mps 740 mmHg 83%
    09:00 +21°C° 0.6 mm 5 mps 740 mmHg 78%
    10:00 +22°C° 0.6 mm 5 mps 740 mmHg 73%
    11:00 +25°C° 0.6 mm 5 mps 740 mmHg 69%
    12:00 +23°C° 0.7 mm 5 mps 740 mmHg 71%
    13:00 +23°C° 0.7 mm 5 mps 740 mmHg 74%
    14:00 +23°C° 0.7 mm 5 mps 739 mmHg 77%
    15:00 +23°C° 1.2 mm 5 mps 739 mmHg 80%
    16:00 +22°C° 1.2 mm 4 mps 739 mmHg 84%
    17:00 +21°C° 1.2 mm 4 mps 739 mmHg 87%
    18:00 +21°C° 0.3 mm 4 mps 739 mmHg 87%
    19:00 +20°C° 0.3 mm 4 mps 739 mmHg 87%
    20:00 +20°C° 0.3 mm 5 mps 739 mmHg 87%
    21:00 +19°C° 0 mm 4 mps 739 mmHg 88%
    22:00 +18°C° 0 mm 4 mps 739 mmHg 90%
    23:00 +17°C° 0 mm 4 mps 739 mmHg 91%

    29 May, Wednesday

    Time Temperature Precipitation Wind Pressure Humidity
    00:00 +17°C° 0 mm 4 mps 739 mmHg 91%
    01:00 +17°C° 0 mm 4 mps 739 mmHg 92%
    02:00 +17°C° 0 mm 4 mps 739 mmHg 92%
    03:00 +16°C° 0 mm 5 mps 739 mmHg 93%
    04:00 +16°C° 0 mm 5 mps 739 mmHg 93%
    05:00 +17°C° 0 mm 5 mps 738 mmHg 94%
    06:00 +19°C° 0 mm 6 mps 738 mmHg 88%
    07:00 +19°C° 0 mm 6 mps 738 mmHg 81%
    08:00 +20°C° 0 mm 7 mps 738 mmHg 75%
    09:00 +21°C° 0 mm 7 mps 738 mmHg 73%
    10:00 +22°C° 0 mm 7 mps 738 mmHg 72%
    11:00 +23°C° 0 mm 7 mps 738 mmHg 70%
    12:00 +24°C° 0 mm 7 mps 739 mmHg 70%
    13:00 +24°C° 0 mm 7 mps 739 mmHg 70%
    14:00 +26°C° 0 mm 7 mps 739 mmHg 69%
    15:00 +24°C° 1.3 mm 6 mps 739 mmHg 73%
    16:00 +24°C° 1.3 mm 6 mps 739 mmHg 77%
    17:00 +23°C° 1.3 mm 5 mps 739 mmHg 81%
    18:00 +22°C° 2 mm 5 mps 739 mmHg 83%
    19:00 +21°C° 2 mm 4 mps 739 mmHg 86%
    20:00 +19°C° 2 mm 3 mps 739 mmHg 89%
    21:00 +19°C° 0.3 mm 3 mps 740 mmHg 91%
    22:00 +18°C° 0.3 mm 2 mps 740 mmHg 93%
    23:00 +18°C° 0.3 mm 2 mps 740 mmHg 95%

    30 May, Thursday

    Time Temperature Precipitation Wind Pressure Humidity
    00:00 +17°C° 1.5 mm 3 mps 740 mmHg 95%
    01:00 +17°C° 1.5 mm 3 mps 741 mmHg 96%
    02:00 +15°C° 1.5 mm 4 mps 741 mmHg 97%
    03:00 +14°C° 0.4 mm 4 mps 742 mmHg 96%
    04:00 +14°C° 0.4 mm 4 mps 742 mmHg 96%
    05:00 +13°C° 0.4 mm 4 mps 743 mmHg 95%
    06:00 +13°C° 0 mm 4 mps 743 mmHg 92%
    07:00 +14°C° 0 mm 4 mps 744 mmHg 89%
    08:00 +14°C° 0 mm 5 mps 744 mmHg 86%
    09:00 +15°C° 0 mm 4 mps 745 mmHg 79%
    10:00 +17°C° 0 mm 4 mps 745 mmHg 72%
    11:00 +18°C° 0 mm 4 mps 745 mmHg 64%
    12:00 +19°C° 0 mm 4 mps 745 mmHg 61%
    13:00 +19°C° 0 mm 4 mps 745 mmHg 58%
    14:00 +19°C° 0 mm 4 mps 745 mmHg 55%
    15:00 +19°C° 0 mm 3 mps 745 mmHg 57%
    16:00 +19°C° 0 mm 3 mps 745 mmHg 58%
    17:00 +19°C° 0 mm 3 mps 745 mmHg 59%
    18:00 +17°C° 0 mm 3 mps 745 mmHg 63%
    19:00 +15°C° 0 mm 2 mps 745 mmHg 67%
    20:00 +14°C° 0 mm 2 mps 745 mmHg 71%
    21:00 +13°C° 0 mm 2 mps 745 mmHg 69%
    22:00 +12°C° 0 mm 2 mps 745 mmHg 68%
    23:00 +10°C° 0 mm 2 mps 745 mmHg 67%
    Show more